TimeCDT,TemperatureF,Dew PointF,Humidity,Sea Level PressureIn,VisibilityMPH,Wind Direction,Wind SpeedMPH,Gust SpeedMPH,PrecipitationIn,Events,Conditions,WindDirDegrees,DateUTC
12:15 AM,44.6,28.4,53,29.78,10.0,ESE,16.1,-,N/A,,Clear,110,2013-04-06 05:15:00
12:35 AM,44.6,28.4,53,29.77,10.0,ESE,17.3,-,N/A,,Clear,120,2013-04-06 05:35:00
12:54 AM,44.6,28.4,53,29.76,10.0,ESE,16.1,20.7,N/A,,Clear,120,2013-04-06 05:54:00
1:15 AM,44.6,28.4,53,29.75,10.0,ESE,17.3,24.2,N/A,,Clear,120,2013-04-06 06:15:00
1:35 AM,44.6,28.4,53,29.74,10.0,ESE,17.3,21.9,N/A,,Clear,120,2013-04-06 06:35:00
1:55 AM,46.4,28.4,50,29.73,10.0,SE,18.4,24.2,N/A,,Clear,130,2013-04-06 06:55:00
2:15 AM,46.4,28.4,50,29.71,10.0,SE,18.4,-,N/A,,Scattered Clouds,130,2013-04-06 07:15:00
2:35 AM,46.4,28.4,50,29.70,10.0,SE,18.4,25.3,N/A,,Scattered Clouds,130,2013-04-06 07:35:00
2:54 AM,46.4,30.2,53,29.69,10.0,SE,18.4,-,N/A,,Scattered Clouds,130,2013-04-06 07:54:00
3:15 AM,46.4,30.2,53,29.67,10.0,SE,19.6,26.5,N/A,,Scattered Clouds,130,2013-04-06 08:15:00
3:35 AM,48.2,30.2,50,29.66,10.0,SE,20.7,29.9,N/A,,Scattered Clouds,130,2013-04-06 08:35:00
3:54 AM,48.2,30.2,50,29.65,10.0,SE,18.4,26.5,N/A,,Clear,130,2013-04-06 08:54:00
4:15 AM,46.4,30.2,53,29.65,10.0,SE,18.4,23.0,N/A,,Clear,140,2013-04-06 09:15:00
4:35 AM,46.4,32.0,57,29.63,10.0,SE,19.6,26.5,N/A,,Mostly Cloudy,130,2013-04-06 09:35:00
4:54 AM,48.2,32.0,54,29.62,10.0,SE,20.7,28.8,N/A,,Mostly Cloudy,130,2013-04-06 09:54:00
5:15 AM,46.4,32.0,57,29.61,10.0,SE,18.4,24.2,N/A,,Mostly Cloudy,130,2013-04-06 10:15:00
5:34 AM,46.4,33.8,62,29.60,10.0,SE,23.0,-,N/A,,Mostly Cloudy,140,2013-04-06 10:34:00
5:55 AM,46.4,33.8,62,29.60,10.0,SE,20.7,28.8,N/A,,Overcast,140,2013-04-06 10:55:00
6:15 AM,46.4,33.8,62,29.58,10.0,SE,20.7,29.9,N/A,,Mostly Cloudy,130,2013-04-06 11:15:00
6:35 AM,46.4,33.8,62,29.58,10.0,SE,19.6,25.3,N/A,,Scattered Clouds,140,2013-04-06 11:35:00
7:14 AM,46.4,33.8,62,29.57,10.0,SE,16.1,-,N/A,,Scattered Clouds,130,2013-04-06 12:14:00
7:35 AM,46.4,35.6,66,29.57,10.0,SE,13.8,-,N/A,,Scattered Clouds,130,2013-04-06 12:35:00
7:54 AM,48.2,35.6,62,29.57,10.0,SE,13.8,18.4,N/A,,Scattered Clouds,130,2013-04-06 12:54:00
8:15 AM,48.2,35.6,62,29.56,10.0,SE,12.7,-,N/A,,Scattered Clouds,130,2013-04-06 13:15:00
8:35 AM,50.0,35.6,58,29.56,10.0,SE,9.2,-,N/A,,Clear,130,2013-04-06 13:35:00
8:55 AM,53.6,37.4,54,29.55,10.0,SE,13.8,-,N/A,,Scattered Clouds,140,2013-04-06 13:55:00
9:15 AM,55.4,37.4,51,29.53,10.0,SSE,17.3,21.9,N/A,,Clear,150,2013-04-06 14:15:00
9:35 AM,55.4,37.4,51,29.52,10.0,SSE,16.1,21.9,N/A,,Clear,160,2013-04-06 14:35:00
9:55 AM,55.4,37.4,51,29.51,10.0,SSE,18.4,-,N/A,,Clear,160,2013-04-06 14:55:00
10:14 AM,57.2,39.2,51,29.51,10.0,South,16.1,-,N/A,,Clear,170,2013-04-06 15:14:00
10:35 AM,60.8,39.2,45,29.51,10.0,South,18.4,24.2,N/A,,Clear,170,2013-04-06 15:35:00
10:55 AM,60.8,41.0,48,29.51,10.0,South,15.0,21.9,N/A,,Clear,190,2013-04-06 15:55:00
11:15 AM,60.8,39.2,45,29.50,10.0,SW,17.3,-,N/A,,Scattered Clouds,220,2013-04-06 16:15:00
11:35 AM,60.8,39.2,45,29.50,10.0,SSW,9.2,-,N/A,,Clear,200,2013-04-06 16:35:00
11:55 AM,59.0,39.2,48,29.52,10.0,SW,17.3,-,N/A,,Scattered Clouds,230,2013-04-06 16:55:00
12:15 PM,55.4,37.4,51,29.52,10.0,SW,17.3,21.9,N/A,,Scattered Clouds,220,2013-04-06 17:15:00
12:34 PM,55.4,37.4,51,29.53,10.0,SW,13.8,-,N/A,,Scattered Clouds,220,2013-04-06 17:34:00
12:55 PM,55.4,37.4,51,29.53,10.0,SW,15.0,-,N/A,,Scattered Clouds,230,2013-04-06 17:55:00
1:15 PM,55.4,41.0,58,29.54,10.0,WNW,18.4,25.3,N/A,Rain,Light Rain,290,2013-04-06 18:15:00
1:34 PM,51.8,41.0,67,29.54,10.0,West,18.4,25.3,N/A,,Drizzle,280,2013-04-06 18:34:00
1:55 PM,50.0,42.8,76,29.52,5.0,WNW,11.5,-,0.01,Rain,Rain,300,2013-04-06 18:55:00
2:15 PM,48.2,42.8,82,29.52,5.0,WNW,16.1,-,0.05,Rain,Rain,300,2013-04-06 19:15:00
2:34 PM,46.4,41.0,81,29.54,5.0,West,19.6,-,0.06,Rain,Light Rain,280,2013-04-06 19:34:00
2:55 PM,48.2,42.8,82,29.55,5.0,WNW,20.7,28.8,0.06,,Haze,290,2013-04-06 19:55:00
3:15 PM,48.2,41.0,76,29.56,7.0,West,21.9,27.6,N/A,,Overcast,280,2013-04-06 20:15:00
3:35 PM,48.2,39.2,71,29.56,7.0,WNW,21.9,28.8,N/A,,Overcast,300,2013-04-06 20:35:00
3:55 PM,48.2,41.0,76,29.57,7.0,WNW,19.6,27.6,N/A,,Mostly Cloudy,290,2013-04-06 20:55:00
4:14 PM,51.8,42.8,71,29.58,10.0,WNW,23.0,29.9,N/A,,Scattered Clouds,290,2013-04-06 21:14:00
4:35 PM,50.0,39.2,66,29.60,10.0,WNW,24.2,29.9,N/A,,Overcast,300,2013-04-06 21:35:00
4:55 PM,48.2,39.2,71,29.61,10.0,WNW,19.6,29.9,N/A,,Overcast,300,2013-04-06 21:55:00
5:15 PM,48.2,39.2,71,29.63,10.0,WNW,17.3,27.6,N/A,,Overcast,300,2013-04-06 22:15:00
5:34 PM,48.2,37.4,66,29.64,10.0,WNW,19.6,32.2,N/A,,Overcast,300,2013-04-06 22:34:00
5:55 PM,48.2,37.4,66,29.65,10.0,WNW,19.6,27.6,N/A,,Overcast,300,2013-04-06 22:55:00
6:15 PM,48.2,37.4,66,29.67,10.0,NW,20.7,25.3,N/A,,Overcast,310,2013-04-06 23:15:00
6:34 PM,46.4,37.4,71,29.67,10.0,NW,17.3,26.5,N/A,,Mostly Cloudy,310,2013-04-06 23:34:00
6:55 PM,46.4,37.4,71,29.69,10.0,WNW,19.6,-,N/A,,Mostly Cloudy,300,2013-04-06 23:55:00
7:15 PM,46.4,37.4,71,29.70,10.0,NW,15.0,25.3,N/A,,Overcast,310,2013-04-07 00:15:00
7:35 PM,46.4,35.6,66,29.71,10.0,NW,19.6,24.2,N/A,,Overcast,310,2013-04-07 00:35:00
7:54 PM,44.6,35.6,71,29.72,10.0,WNW,20.7,25.3,N/A,,Overcast,300,2013-04-07 00:54:00
8:15 PM,44.6,35.6,71,29.73,10.0,NW,13.8,24.2,N/A,,Overcast,310,2013-04-07 01:15:00
8:35 PM,42.8,35.6,76,29.74,10.0,NW,13.8,-,N/A,,Overcast,310,2013-04-07 01:35:00
8:55 PM,42.8,35.6,76,29.75,10.0,WNW,18.4,23.0,N/A,,Overcast,290,2013-04-07 01:55:00
9:15 PM,42.8,33.8,70,29.76,10.0,NW,19.6,24.2,N/A,,Overcast,310,2013-04-07 02:15:00
9:34 PM,41.0,33.8,76,29.78,10.0,NW,12.7,-,N/A,,Overcast,310,2013-04-07 02:34:00
9:55 PM,41.0,33.8,76,29.78,10.0,WNW,16.1,20.7,N/A,,Overcast,300,2013-04-07 02:55:00
10:15 PM,39.2,33.8,81,29.78,10.0,WNW,12.7,-,N/A,,Overcast,300,2013-04-07 03:15:00
10:34 PM,39.2,33.8,81,29.79,10.0,NW,15.0,-,N/A,,Overcast,310,2013-04-07 03:34:00
10:55 PM,39.2,33.8,81,29.80,7.0,WNW,10.4,-,N/A,,Mostly Cloudy,300,2013-04-07 03:55:00
11:15 PM,37.4,32.0,81,29.80,7.0,WNW,10.4,16.1,N/A,,Clear,300,2013-04-07 04:15:00
11:35 PM,37.4,32.0,81,29.80,7.0,WNW,12.7,-,N/A,,Mostly Cloudy,300,2013-04-07 04:35:00
11:55 PM,37.4,32.0,81,29.80,7.0,WNW,16.1,-,N/A,,Overcast,290,2013-04-07 04:55:00